Vertical_Velocity
1 5 -3 -13 -7 -2 2 5 1 1 -2 -0 2 4 -8 5 2 12 12 -13 -26 8 4 4 3 -1 1 4 2 -1 4 -0 2 -2 3 2 1 2 0 0 1 1 3
1 -9 1 0 -6 6 -0 4 5 3 -0 -4 -1 3 2 1 1 -1 8 -6 -10 -3 0 3 7 0 -0 1 1 1 -1 -1 1 -2 1 -0 1 0 2 1 0 -0 1
3 3 -1 -2 -3 -3 1 13 1 2 -1 1 4 5 7 11 3 4 -4 -1 -21 -1 -0 8 2 4 2 3 1 2 1 -2 -1 2 -3 -3 -0 -2 3 1 3 1 -2
3 4 1 -2 -2 -14 -11 1 9 3 2 -2 1 -1 -11 -3 1 -3 6 -22 26 -41 8 0 5 6 1 0 3 4 2 1 -1 -1 0 -0 -1 -2 -1 3 1 1 2
2 -6 -4 -5 -6 -8 -0 3 5 6 1 -1 1 0 1 7 1 5 3 14 -11 -35 -6 11 13 4 -0 -0 3 4 1 -0 3 1 -1 2 1 2 -5 -0 3 3 4
-9 -10 -11 -3 -10 -5 5 5 8 2 1 1 2 2 -1 -6 -1 6 -4 -9 1 20 -3 -0 8 8 3 1 1 4 -1 0 2 -1 1 1 -1 -1 -1 -0 2 2 6
-2 1 -3 -13 3 3 2 -0 10 2 2 4 1 -0 2 1 4 -3 -5 -0 21 -29 -6 1 6 7 3 2 2 -0 -1 -2 1 -2 1 -0 -6 2 -5 -0 -3 -1 3
-6 -3 5 -7 -0 4 5 2 6 3 3 2 5 2 -4 4 1 7 1 -23 25 -7 -12 11 2 2 6 2 2 -1 -0 -2 2 -4 1 3 -5 -4 2 -4 -0 -1 2
-4 -1 -1 -1 -5 -6 -0 1 2 4 3 2 2 1 2 2 -4 5 -4 43 -10 -21 -6 9 2 7 3 3 5 -0 -3 2 -3 1 -4 -1 0 -1 -6 2 -4 -1 -1
-7 -1 -5 -4 -1 10 9 7 5 3 -2 2 0 1 2 5 6 7 -11 10 -4 -5 5 1 2 4 4 2 5 -0 -1 3 -1 -1 -0 -7 7 -2 -3 -6 5 -1 -4
-3 4 2 8 -2 3 2 2 4 -1 3 6 3 4 8 2 -2 -4 -4 5 -2 -3 6 1 5 0 1 2 2 3 1 -0 4 -3 -6 1 -3 1 -6 4 3 2 -3
-1 4 -1 -1 -1 4 4 1 0 -3 9 6 3 6 2 4 3 1 -12 7 -4 6 -1 4 1 2 -1 -0 2 1 5 1 1 -8 -5 2 2 -7 0 2 4 -0 -4
-2 7 5 -4 0 -1 -2 1 0 2 6 13 5 0 -5 -4 1 -3 1 -2 7 -2 -6 1 1 -0 -2 2 2 -2 -1 5 -4 -14 7 -4 -7 3 3 0 -1 -0 0
4 4 0 5 6 3 1 4 6 12 8 5 6 2 4 -1 -5 -6 -1 1 -8 6 5 3 -0 2 6 -5 2 8 2 1 -7 -9 1 -2 -2 4 -3 3 -0 -2 -1
-0 1 -4 4 2 4 9 15 18 17 4 -2 -6 -2 1 3 4 -5 -6 1 10 3 3 2 1 -0 5 3 4 -2 5 -6 -8 -4 3 -0 3 -6 4 1 -4 -0 -2
3 -1 1 2 4 4 4 9 2 -6 7 6 3 2 0 -7 4 -1 5 5 6 -3 0 6 5 -3 -0 3 4 2 -5 -7 -3 -1 -1 0 -4 -1 1 -2 -1 -3 -5
-0 1 2 2 -0 1 8 3 2 -3 -10 -2 1 -1 -2 3 7 8 6 10 -8 6 2 4 2 -1 -2 4 2 -8 -8 -1 3 3 -3 -4 -2 2 -2 -1 -5 -1 5
2 2 -1 4 2 4 3 1 -7 4 -4 -2 -8 -6 -6 -7 -0 -2 -1 -1 -2 2 1 1 1 1 2 1 -5 -5 -2 4 2 -3 -1 -2 -1 0 -0 -3 1 3 -2
7 3 -1 1 8 5 -3 -5 1 1 5 9 7 5 5 -12 1 6 0 1 2 -8 2 2 -0 9 -0 -7 -2 1 4 2 -2 -0 -3 -3 1 0 -1 -4 -7 -1 1
2 4 2 3 7 9 -2 1 -4 -1 1 -0 0 2 0 -4 0 7 -3 -7 6 2 2 7 1 -6 -3 3 3 5 -2 -3 -2 -0 0 -3 1 1 0 1 -1 -2 -2
1 2 3 -2 3 4 3 -2 2 -1 -3 0 1 5 0 1 6 1 -2 -1 -2 4 1 -5 0 3 4 7 3 -3 -2 -1 -0 -2 -0 1 1 1 2 -1 -1 -0 -3
1 5 1 3 3 5 -4 1 -1 1 3 -2 -5 -3 -1 -2 -0 -1 4 6 1 -0 -2 1 1 7 -2 0 -4 -0 -3 0 -0 0 1 1 1 -2 -2 1 1 -0 -3
-1 3 -1 -2 2 8 7 -10 -3 -1 -2 -1 5 1 4 3 7 1 -4 -2 3 4 4 4 -4 -5 -2 0 0 -1 1 0 1 -2 -1 -2 -1 -0 0 -1 -2 -0 3
-3 0 -1 -1 -2 0 -3 5 -4 -1 2 -2 -2 -1 -0 -2 1 3 3 -2 -3 -2 -0 0 -1 -2 -1 -1 3 3 -2 -6 -2 -0 2 0 -2 -4 -3 -0 2 1 -1
1 0 -3 -1 0 0 1 2 -1 -0 -3 1 1 1 1 1 -2 4 5 2 4 3 1 4 -2 -3 2 -1 -3 -6 -5 1 1 0 1 -2 -3 -0 2 1 -1 -3 -2
-2 -1 -1 1 -0 -1 0 0 -1 -1 -3 -5 -3 -1 -3 -2 -2 1 1 3 2 3 1 -5 -2 -2 -4 -5 -4 -1 1 1 -1 -2 -6 -2 -0 -0 -3 -6 -6 -5 -3
Height
1450 1451 1451 1452 1451 1453 1454 1454 1454 1454 1457 1461 1464 1469 1473 1480 1482 1485 1483 1491 1499 1503 1504 1508 1509 1511 1515 1515 1516 1519 1522 1525 1528 1531 1535 1537 1541 1542 1542 1543 1543 1544 1544
1447 1447 1446 1446 1446 1448 1449 1449 1448 1448 1449 1455 1460 1464 1467 1472 1476 1481 1479 1481 1495 1500 1503 1506 1508 1509 1512 1513 1515 1517 1518 1521 1526 1529 1533 1536 1541 1542 1542 1542 1543 1544 1544
1442 1442 1441 1440 1440 1442 1442 1443 1441 1442 1445 1450 1453 1458 1463 1466 1471 1474 1477 1477 1485 1498 1503 1506 1508 1509 1510 1512 1514 1515 1516 1518 1523 1526 1529 1533 1534 1539 1541 1541 1543 1543 1543
1440 1438 1435 1433 1432 1432 1433 1435 1434 1435 1438 1443 1446 1450 1455 1461 1464 1470 1473 1478 1477 1493 1503 1505 1508 1508 1507 1511 1513 1514 1514 1518 1520 1524 1527 1527 1528 1532 1539 1540 1541 1541 1540
1435 1431 1427 1423 1420 1416 1415 1415 1419 1424 1430 1435 1440 1445 1450 1456 1460 1466 1472 1472 1481 1488 1500 1506 1505 1505 1506 1509 1512 1512 1513 1517 1520 1522 1524 1526 1527 1530 1532 1536 1538 1540 1539
1430 1423 1417 1409 1404 1404 1402 1402 1406 1412 1420 1427 1434 1438 1443 1449 1454 1461 1468 1470 1482 1481 1497 1500 1503 1504 1504 1507 1509 1510 1512 1516 1518 1521 1523 1525 1527 1529 1531 1534 1536 1539 1539
1421 1412 1404 1398 1393 1391 1391 1392 1399 1404 1413 1421 1428 1432 1437 1444 1450 1456 1461 1466 1468 1481 1494 1499 1502 1503 1504 1505 1507 1508 1512 1516 1519 1521 1524 1525 1527 1529 1531 1532 1534 1535 1536
1411 1402 1393 1387 1383 1381 1382 1386 1394 1401 1409 1416 1423 1428 1435 1440 1447 1453 1461 1464 1467 1480 1494 1497 1499 1504 1503 1504 1506 1507 1512 1517 1519 1522 1524 1524 1527 1528 1530 1531 1531 1532 1533
1403 1394 1386 1381 1377 1375 1379 1384 1392 1398 1405 1412 1418 1425 1431 1436 1444 1451 1458 1465 1465 1480 1493 1495 1499 1502 1502 1504 1505 1506 1513 1517 1520 1521 1524 1525 1527 1526 1529 1530 1529 1529 1528
1399 1390 1382 1379 1378 1380 1383 1387 1392 1397 1403 1409 1417 1421 1427 1434 1442 1449 1454 1464 1465 1479 1489 1492 1498 1499 1501 1504 1506 1509 1513 1516 1519 1519 1524 1527 1526 1526 1527 1529 1527 1524 1525
1398 1390 1385 1383 1383 1384 1385 1389 1393 1398 1403 1408 1413 1419 1425 1433 1441 1447 1456 1465 1470 1480 1485 1491 1495 1497 1501 1505 1510 1512 1514 1515 1516 1519 1523 1527 1526 1526 1527 1527 1525 1522 1521
1396 1390 1385 1384 1384 1385 1388 1391 1395 1398 1401 1406 1411 1418 1426 1433 1441 1449 1458 1465 1471 1480 1485 1490 1495 1497 1503 1508 1513 1513 1514 1514 1515 1518 1525 1525 1526 1527 1525 1524 1522 1519 1518
1397 1392 1388 1382 1387 1387 1389 1392 1394 1396 1401 1405 1410 1420 1428 1434 1442 1451 1460 1469 1473 1478 1486 1492 1495 1500 1505 1509 1513 1512 1513 1512 1513 1520 1525 1523 1525 1525 1523 1521 1518 1516 1516
1400 1396 1393 1392 1390 1390 1391 1392 1394 1396 1400 1405 1415 1423 1430 1438 1446 1454 1460 1468 1477 1481 1486 1492 1498 1502 1506 1508 1512 1510 1511 1511 1514 1522 1523 1522 1524 1523 1519 1517 1515 1514 1512
1403 1400 1397 1395 1394 1394 1394 1394 1396 1398 1404 1410 1419 1426 1433 1440 1448 1455 1465 1474 1479 1481 1488 1494 1499 1501 1506 1510 1509 1508 1510 1511 1517 1523 1521 1521 1521 1520 1517 1513 1512 1510 1508
1404 1403 1401 1400 1399 1399 1399 1399 1400 1403 1411 1418 1424 1431 1438 1445 1451 1460 1467 1472 1475 1483 1491 1495 1498 1501 1506 1507 1507 1509 1512 1516 1518 1518 1520 1520 1518 1517 1513 1511 1510 1508 1506
1404 1403 1403 1401 1402 1403 1403 1406 1409 1415 1421 1425 1431 1436 1443 1449 1456 1461 1467 1471 1477 1487 1491 1494 1498 1503 1505 1506 1510 1511 1515 1517 1516 1517 1518 1516 1516 1513 1511 1508 1507 1506 1504
1404 1404 1404 1405 1406 1407 1409 1411 1417 1423 1425 1430 1436 1440 1447 1454 1460 1466 1471 1477 1485 1488 1494 1498 1501 1505 1507 1507 1510 1512 1515 1516 1515 1515 1514 1514 1514 1510 1507 1505 1505 1503 1500
1403 1404 1405 1406 1407 1410 1413 1416 1422 1426 1431 1435 1440 1446 1451 1456 1464 1470 1475 1481 1485 1492 1496 1500 1504 1505 1505 1509 1512 1512 1514 1514 1513 1512 1510 1512 1510 1506 1504 1502 1500 1498 1495
1404 1403 1405 1406 1408 1412 1416 1421 1425 1431 1435 1440 1444 1448 1454 1461 1468 1471 1476 1483 1490 1494 1498 1500 1503 1505 1510 1510 1510 1510 1510 1511 1512 1511 1509 1508 1506 1503 1501 1498 1495 1493 1490
1408 1407 1407 1409 1411 1414 1419 1425 1431 1436 1440 1444 1448 1453 1459 1467 1471 1475 1482 1487 1492 1496 1498 1502 1505 1507 1508 1508 1507 1509 1509 1510 1510 1508 1506 1504 1502 1500 1497 1494 1492 1489 1486
1413 1413 1413 1414 1416 1419 1425 1431 1436 1440 1444 1448 1454 1459 1465 1471 1475 1480 1485 1489 1493 1496 1498 1502 1504 1504 1506 1507 1508 1508 1508 1508 1507 1505 1503 1502 1499 1495 1493 1491 1488 1486 1483
1418 1419 1420 1422 1424 1427 1432 1436 1440 1444 1448 1453 1459 1464 1469 1473 1478 1483 1486 1489 1493 1497 1497 1500 1502 1505 1507 1506 1507 1506 1506 1505 1504 1503 1500 1497 1494 1492 1490 1487 1484 1482 1479
1422 1424 1426 1428 1430 1434 1437 1440 1443 1447 1452 1457 1461 1466 1471 1476 1481 1485 1488 1491 1493 1496 1499 1501 1502 1504 1505 1505 1505 1505 1504 1503 1502 1500 1497 1494 1491 1488 1486 1483 1481 1478 1475
1424 1426 1428 1430 1434 1437 1440 1443 1446 1450 1454 1459 1464 1468 1473 1477 1481 1486 1489 1491 1494 1497 1499 1498 1499 1503 1504 1504 1504 1504 1503 1502 1498 1496 1493 1490 1487 1484 1481 1479 1477 1474 1471
1425 1427 1429 1432 1435 1438 1441 1444 1448 1452 1455 1461 1465 1470 1473 1477 1481 1484 1486 1488 1493 1495 1495 1497 1501 1502 1502 1503 1502 1501 1500 1498 1495 1492 1489 1486 1482 1479 1477 1474 1471 1468 1465